Location: *
(32.3758°S, 63.1185°E)
Time: 18:48:04
(UTC+00:00)

Cosmos 1980 - Pass Details

Date: 02 June 2023
Orbit: 840 x 845 km, 71.0° (Epoch: 22 September)

Event Time Altitude Azimuth Distance (km) Brightness Sun altitude
Rises 14:23:05 0° 207° (SSW) 3,426 7.0 -19.3°
Reaches altitude 10° 14:25:37 10° 212° (SSW) 2,485 6.3 -19.8°
Maximum altitude 14:31:06 50° 286° (WNW) 1,069 4.6 -20.9°
Drops below altitude 10° 14:36:32 10° 360° (N) 2,458 6.3 -22.0°
Sets 14:39:02 0° 5° (N) 3,386 6.9 -22.5°
